RH
64 63 63 61 63 67 68 67 65 65 65 62 64 66 62 63 66 66 67 63 53 45 40 33 26 21 21 24 24 24 24 22 22 24 23 23 27 31 35 36 31 27 26 25 27 29 30 32 33 34 32 31 30 28 26 25 25 24 22 19 21 22 21 20 22 24 25 25 26 27 28 28 28 29 30 31 32 32 34 37 37 35 34 34 35
62 64 67 67 67 68 69 70 70 69 68 66 65 64 61 62 61 60 61 57 51 47 40 31 27 25 24 23 23 23 22 20 21 23 23 23 24 26 31 33 30 27 27 26 26 27 28 28 29 29 28 26 25 25 24 24 24 25 27 27 28 29 28 26 27 29 28 28 30 32 33 33 33 34 34 35 37 38 40 41 39 36 35 35 35
59 62 69 71 71 71 72 73 73 72 72 73 71 66 63 60 52 50 51 52 53 51 42 34 33 31 27 23 22 22 21 20 21 22 22 22 21 23 27 29 29 27 27 26 26 26 27 27 27 27 27 27 27 27 28 29 30 31 33 36 36 36 35 35 36 36 35 34 35 36 37 39 40 40 40 41 43 44 45 45 44 42 40 39 38
62 64 69 72 72 75 79 80 77 75 76 74 72 70 69 60 48 44 47 50 55 54 46 41 41 39 34 26 22 22 23 22 22 22 23 23 22 23 25 28 27 26 26 25 25 26 28 30 32 33 33 33 33 34 34 35 36 36 37 40 40 40 40 41 42 42 41 41 40 40 42 44 45 46 46 47 48 47 46 46 45 44 43 42 41
66 67 72 76 79 81 83 85 81 79 79 76 74 76 72 61 51 47 49 53 56 54 47 43 44 43 39 31 25 25 25 26 26 27 27 27 27 27 28 30 29 29 29 29 29 30 30 31 34 35 36 36 36 36 37 38 39 40 41 43 44 45 46 47 48 48 48 48 47 47 48 49 50 51 51 52 51 48 45 43 42 41 41 40 38
70 72 74 76 82 85 87 88 85 84 85 81 79 78 72 63 57 52 53 56 57 54 48 44 44 43 40 36 32 29 28 29 30 31 30 29 29 31 32 33 32 32 32 33 33 34 33 33 34 33 34 35 36 38 39 40 42 43 44 46 47 49 51 53 54 54 54 54 53 54 54 55 55 54 54 55 55 51 46 42 39 37 36 36 36
73 74 73 75 81 84 84 88 89 88 88 83 79 77 71 66 61 55 55 59 61 59 54 48 45 41 39 39 36 34 32 30 30 32 32 30 30 32 35 36 35 35 35 35 35 36 36 37 37 36 37 38 39 40 41 42 43 43 44 46 48 50 52 55 56 59 60 59 59 59 59 58 58 58 58 58 56 52 47 42 39 36 34 35 35
70 71 75 79 79 76 77 84 89 88 83 79 77 77 75 71 68 64 61 60 63 65 60 53 48 43 38 37 37 37 36 32 30 32 35 34 34 35 36 37 38 37 37 38 40 40 40 40 41 42 42 42 42 43 44 45 45 45 45 46 48 50 52 54 55 57 61 64 66 66 64 62 61 62 62 60 55 51 47 43 39 37 36 36 36
70 73 77 77 74 74 75 81 87 84 77 75 76 76 78 77 75 72 68 63 64 67 65 58 54 49 43 40 38 39 40 37 35 35 36 36 37 38 39 41 41 40 40 41 43 45 45 45 47 48 48 49 49 49 50 51 51 50 49 49 50 52 52 53 52 54 57 63 68 71 70 68 66 66 65 62 56 52 48 44 41 39 38 38 37
74 78 75 71 73 78 79 82 84 80 77 81 83 80 81 81 79 74 69 64 62 64 65 62 58 56 53 49 45 42 42 42 41 40 40 39 39 40 42 44 45 45 45 44 44 47 49 52 53 54 54 54 54 54 54 55 58 59 58 57 57 57 57 57 57 57 59 62 65 70 72 71 70 69 68 65 62 58 53 48 44 43 42 42 41
76 77 71 71 78 82 79 78 79 76 77 85 86 80 76 77 78 73 66 63 62 60 60 60 59 58 57 57 55 52 48 45 43 43 43 44 44 44 45 47 48 49 48 46 44 45 49 53 55 55 54 53 53 53 52 54 59 63 64 64 65 65 64 64 64 65 65 65 64 66 68 70 69 67 66 65 65 63 59 53 49 49 48 48 47
73 72 71 75 80 80 76 72 73 73 76 80 80 78 78 80 82 77 67 65 65 61 59 59 58 56 54 53 54 54 53 51 47 45 44 44 44 43 43 43 44 46 46 46 46 46 47 50 50 49 48 48 49 52 52 52 54 57 59 62 66 67 66 66 66 68 69 68 68 67 67 68 67 61 57 57 60 63 60 54 52 53 54 55 53
65 66 70 73 72 72 72 70 72 73 74 74 74 78 82 82 79 75 68 67 66 62 59 58 57 55 52 49 47 47 48 49 49 49 48 48 47 45 43 41 40 39 39 41 43 45 46 47 47 47 45 44 45 50 53 53 54 56 58 62 66 67 66 64 64 65 66 66 67 69 70 71 67 58 52 52 56 59 58 54 54 57 59 58 55
61 62 66 65 62 63 65 66 68 70 69 69 68 69 71 71 68 66 68 72 73 68 61 58 57 55 52 50 47 45 45 46 46 47 46 47 47 47 47 46 45 43 41 40 41 42 43 44 46 49 50 48 46 48 53 57 60 61 61 64 67 68 67 66 65 66 66 64 64 65 69 73 68 58 53 55 57 58 58 60 62 64 63 60 54
65 66 65 62 59 59 59 61 63 65 65 65 67 67 66 66 65 63 67 72 75 71 65 62 62 58 54 51 49 47 47 46 46 45 44 42 42 42 42 44 45 45 46 47 48 50 50 49 51 54 56 55 52 50 52 56 59 61 63 64 65 66 66 68 68 67 67 66 64 63 68 72 67 59 58 60 60 58 59 64 67 67 62 56 50
73 72 71 68 65 65 64 64 63 64 64 65 67 68 67 66 66 64 65 65 64 60 58 57 57 55 54 52 51 50 49 48 47 47 46 44 42 40 38 38 38 40 42 45 48 52 54 55 59 64 65 66 65 59 56 57 58 62 68 69 67 66 66 68 69 69 68 67 65 65 67 67 64 62 63 63 60 58 57 57 59 58 53 49 47
81 78 75 73 71 70 69 67 65 65 65 65 65 65 63 63 63 63 62 61 56 52 50 49 47 48 49 50 49 48 48 49 49 49 49 47 46 45 43 39 38 40 42 45 48 52 55 56 62 71 77 80 77 69 64 60 58 63 71 71 68 66 67 68 69 69 68 68 69 70 69 68 66 66 66 65 60 57 55 53 52 52 50 48 46
84 81 79 76 74 73 71 68 66 65 65 65 65 65 64 63 63 62 62 60 58 55 53 53 52 51 50 51 51 50 49 48 49 50 50 49 48 48 48 45 42 44 47 49 51 53 55 54 55 62 70 75 75 70 66 61 58 63 69 68 65 64 65 67 70 69 68 72 80 81 75 70 68 67 68 69 64 58 54 52 52 52 50 47 44
84 82 81 78 76 75 73 70 68 66 66 65 65 66 67 66 66 65 65 65 65 63 61 61 60 59 57 57 57 56 53 51 49 50 50 49 46 45 45 44 43 43 45 48 51 53 56 55 53 55 58 61 64 65 61 56 55 60 64 63 63 62 61 64 68 68 66 73 80 78 72 69 69 71 74 72 64 57 54 54 53 51 48 45 44
80 79 79 77 76 75 74 72 70 68 67 66 66 66 66 66 66 65 64 64 65 65 65 65 65 65 65 64 63 62 60 58 54 51 48 46 45 43 43 45 46 44 44 47 52 57 59 58 55 54 54 54 57 59 57 54 54 58 61 60 59 60 61 65 70 70 70 74 76 75 74 75 75 75 73 67 59 56 55 54 51 50 48 47 46
71 72 73 74 74 74 74 73 74 73 72 71 71 71 71 70 70 70 69 67 66 65 64 64 64 64 65 65 64 64 64 62 59 54 50 50 49 47 47 49 49 47 45 46 51 55 57 56 54 52 52 53 55 56 56 56 56 60 62 59 59 64 68 70 73 76 79 81 79 78 77 76 75 72 67 61 59 58 56 54 53 52 50 49 47
70 70 71 72 72 73 74 74 74 73 72 71 70 71 70 71 70 69 69 67 66 65 63 62 60 59 59 59 59 60 61 61 60 58 57 57 56 54 53 53 52 50 49 49 50 49 48 46 47 48 50 51 51 52 54 55 58 63 66 68 74 79 78 74 78 83 83 78 73 71 72 72 72 70 66 62 61 59 57 57 56 55 53 51 49
70 70 70 69 69 69 68 67 66 65 64 63 62 62 61 61 61 60 60 58 57 56 55 54 52 51 49 49 49 49 52 53 55 57 58 57 56 55 54 54 53 51 50 48 46 42 40 39 40 42 46 47 47 49 52 56 61 67 72 78 86 87 83 82 84 84 80 73 68 66 66 67 68 68 66 64 62 60 60 60 59 58 56 53 51
70 69 68 67 66 64 62 61 59 58 56 55 53 52 51 50 49 49 50 50 49 48 47 46 45 44 43 42 41 40 40 41 44 47 49 50 51 51 50 50 49 47 45 43 41 39 39 38 38 41 46 47 47 49 51 53 58 65 74 83 87 87 88 88 85 81 79 76 73 70 67 66 68 69 66 64 62 62 63 63 63 62 58 55 53
68 67 66 64 62 60 58 55 53 51 50 48 47 45 44 43 43 43 43 44 43 43 42 41 39 39 38 37 37 35 35 34 35 36 39 42 45 46 47 47 47 44 41 39 40 41 41 39 39 42 46 50 51 50 50 48 49 59 75 87 89 89 91 88 81 79 80 79 76 74 69 65 63 63 61 61 63 65 67 67 65 62 59 55 52
60 59 57 56 54 52 50 48 47 46 45 45 44 43 42 41 40 39 40 40 40 40 40 39 37 36 35 34 33 32 31 31 31 31 31 34 37 40 43 45 46 45 43 43 43 43 42 40 39 41 45 52 56 58 63 68 68 70 78 86 91 94 93 86 80 79 80 78 76 73 67 60 55 54 57 63 67 68 68 67 62 58 53 49 46
53 51 50 49 48 46 44 43 42 40 40 40 39 38 38 37 35 34 34 34 34 35 35 35 34 32 31 30 29 28 28 28 28 27 27 27 29 32 35 40 43 43 41 39 38 38 39 38 38 41 45 50 54 59 69 80 84 83 84 87 91 93 91 84 81 79 77 76 74 71 65 58 52 52 58 67 70 69 66 61 55 49 45 42 41
44 44 43 43 41 40 39 39 39 38 37 37 37 36 36 35 33 33 32 31 30 30 31 31 30 29 28 27 25 24 24 24 24 25 25 24 25 29 33 36 37 40 45 49 49 45 43 42 45 48 49 48 49 52 60 69 75 81 87 89 89 88 85 81 79 78 76 75 73 68 63 58 54 53 56 59 59 56 53 50 47 43 40 39 38
42 42 42 41 40 38 38 38 38 37 36 36 35 36 35 34 33 31 30 30 30 30 30 30 29 29 28 27 27 25 22 23 23 24 24 24 23 26 28 29 31 42 61 78 79 68 58 55 57 60 56 51 49 51 58 70 79 84 85 84 82 82 82 80 79 78 76 73 70 66 64 63 62 60 57 54 51 47 45 44 42 39 38 36 34
45 45 44 43 41 40 39 39 38 38 37 36 35 33 32 32 31 29 28 29 29 30 30 30 30 30 29 28 28 26 25 24 24 24 24 24 23 24 25 27 33 45 62 75 79 73 65 62 64 64 59 53 52 52 55 67 79 84 82 78 77 79 81 80 79 78 75 72 69 68 67 65 63 61 57 53 49 44 40 38 36 34 34 33 33
45 43 42 42 42 41 41 40 40 41 40 39 36 33 29 27 26 26 26 27 28 28 29 30 30 30 30 30 29 28 27 26 26 25 26 25 25 25 25 27 34 43 51 56 59 60 58 58 59 58 52 53 61 66 66 67 74 79 80 80 81 82 82 81 79 77 76 73 69 65 62 60 59 58 54 49 45 42 39 37 35 33 34 35 36
46 44 44 44 42 41 40 40 40 40 38 36 33 32 28 25 24 25 24 25 26 27 28 29 30 30 30 30 30 29 28 28 27 26 28 28 27 27 28 29 33 37 41 44 49 52 52 51 51 48 49 59 72 78 78 80 83 84 84 85 85 84 82 80 79 78 77 73 67 63 62 61 59 55 50 45 43 41 40 37 36 36 37 37 35
45 44 43 42 41 39 39 39 38 36 34 32 31 31 30 30 29 28 26 26 27 27 28 29 31 31 32 31 31 31 31 30 30 29 29 31 31 31 33 36 38 39 39 41 46 48 47 46 47 46 49 58 71 79 84 89 91 90 88 86 84 83 82 81 81 80 77 72 68 66 63 59 52 47 43 41 40 40 39 39 38 38 37 35 31
42 42 41 41 41 40 40 38 36 35 35 35 35 35 35 35 35 35 33 31 29 28 28 29 30 31 32 32 32 32 31 31 31 30 31 32 34 36 40 43 45 45 43 42 43 43 40 38 43 50 54 60 72 86 92 91 88 86 86 84 84 84 83 83 82 80 78 74 69 64 57 50 45 41 39 40 41 42 41 40 38 36 35 32 29
43 43 43 42 42 41 41 39 39 39 40 40 40 40 39 39 39 39 38 38 36 33 31 30 30 30 30 31 31 31 31 30 30 31 31 32 35 40 45 47 49 50 48 46 45 43 39 36 42 55 67 76 87 94 92 85 83 84 85 85 85 84 83 84 84 83 79 73 65 57 51 46 42 40 40 42 44 43 41 38 36 34 32 30 29
46 46 45 45 44 43 42 42 41 42 42 42 42 43 42 42 42 41 39 39 39 38 36 34 32 30 30 31 32 32 32 33 32 31 32 34 39 45 48 49 50 51 51 52 53 50 45 43 49 63 80 90 95 96 92 87 86 88 88 87 86 85 85 86 85 81 75 68 60 54 49 45 43 42 43 44 43 40 38 36 34 32 30 29 30
48 48 47 48 46 44 44 44 44 44 44 44 45 45 45 46 46 45 43 41 40 41 40 39 36 34 33 35 37 38 38 39 38 37 37 37 41 47 52 57 61 58 53 55 61 61 58 58 63 74 88 95 96 95 93 91 91 91 90 88 88 88 88 87 82 76 70 64 57 52 48 46 45 42 40 38 36 35 34 33 31 29 28 29 31
49 50 51 51 49 47 47 47 48 48 47 46 46 46 46 47 47 46 46 45 43 43 44 43 44 44 42 42 44 45 46 47 47 47 47 47 47 47 54 68 77 72 59 57 61 63 65 73 80 86 93 97 98 96 94 93 93 92 91 90 91 90 88 83 77 72 66 60 55 51 48 46 43 37 32 31 30 30 30 29 28 28 29 30 33
51 53 54 54 52 51 50 50 51 52 50 48 48 47 45 44 43 44 46 47 47 47 48 49 52 53 52 51 51 50 50 52 53 55 58 61 57 51 56 73 86 79 64 56 56 59 66 77 84 88 93 96 97 97 95 93 92 92 91 91 90 88 86 81 75 69 64 59 57 54 51 46 40 32 28 26 25 26 28 28 28 30 32 33 35
54 56 57 56 55 53 53 53 54 54 53 51 48 46 44 43 45 46 48 51 52 53 52 53 54 55 55 58 60 62 64 65 64 64 65 66 63 60 65 77 83 77 65 57 55 60 71 79 82 87 94 97 97 96 96 94 93 92 91 90 88 87 85 81 74 68 63 61 59 56 51 45 38 32 27 24 24 26 30 32 34 36 35 35 36
58 59 59 59 57 55 55 55 55 55 55 52 47 44 44 45 49 51 52 54 56 55 53 54 56 57 59 62 68 75 78 79 79 80 78 76 74 77 83 85 81 74 70 65 61 63 75 85 90 94 97 97 95 94 94 94 94 93 92 91 89 86 82 76 70 66 63 62 60 56 49 43 38 33 29 26 26 29 33 37 39 39 36 35 37
59 60 60 59 57 54 53 53 53 53 54 51 47 45 45 46 49 53 54 56 57 56 54 55 57 58 59 62 70 79 84 85 89 93 93 90 88 87 88 87 81 74 69 68 66 68 76 85 92 96 97 95 94 94 93 92 92 91 90 89 86 81 75 72 68 64 62 62 60 54 45 38 35 31 29 28 27 29 34 37 38 36 36 37 38
58 58 58 57 55 52 51 52 52 51 51 50 47 46 46 47 48 49 51 54 57 57 55 55 56 56 55 56 63 74 82 89 95 97 96 95 95 89 84 84 84 80 75 73 74 76 77 78 81 85 88 89 91 91 93 94 94 91 88 86 82 77 72 69 66 64 64 63 58 49 41 36 32 31 29 28 27 28 32 36 37 36 37 38 38
52 53 53 52 52 50 50 51 51 50 51 50 48 47 47 48 49 48 47 49 53 54 53 54 56 57 57 57 60 67 75 85 92 94 91 91 93 91 85 83 82 81 79 79 79 79 80 80 80 80 80 81 82 83 86 91 93 91 86 80 75 71 69 67 67 66 64 59 51 43 38 35 33 32 30 28 27 29 33 36 37 38 38 39 40
49 48 49 49 49 49 49 50 49 49 50 50 49 48 48 49 49 49 48 48 50 51 51 53 56 58 59 62 64 66 68 73 80 83 83 84 84 83 81 81 81 78 76 76 76 76 78 83 87 87 87 88 89 88 86 86 87 85 79 73 70 68 68 69 68 64 59 52 44 38 36 36 36 33 29 27 28 32 35 37 39 39 39 41 42
49 47 46 47 49 49 50 50 49 48 49 50 50 51 51 50 50 51 49 48 49 50 50 50 51 52 55 59 62 63 62 64 66 68 69 71 73 74 77 79 79 78 77 76 74 71 73 77 81 85 89 93 95 92 89 87 84 80 77 74 74 73 73 71 66 57 49 44 39 36 38 41 39 33 29 29 31 35 38 39 39 39 41 44 45
47 46 44 44 46 48 51 52 52 51 51 51 50 51 52 53 53 53 52 50 49 50 49 48 48 50 53 56 58 59 59 59 59 58 58 60 66 75 82 82 79 77 77 74 68 66 68 71 73 78 86 91 90 88 86 85 82 79 79 80 80 78 74 68 59 49 43 41 39 39 42 42 39 34 32 32 35 38 41 41 40 40 44 47 47
46 45 42 42 43 45 47 49 51 52 53 54 54 53 54 55 55 56 56 55 53 51 50 49 50 51 54 57 60 61 62 61 60 58 58 61 67 76 82 83 81 80 79 75 70 68 71 74 76 81 87 88 84 81 80 79 78 78 79 79 77 73 68 61 52 46 43 43 42 42 42 41 37 34 33 34 37 41 43 43 42 44 48 50 50
47 45 42 41 41 41 42 44 45 47 51 55 58 59 59 59 60 61 62 60 58 56 55 54 55 56 58 62 66 67 66 65 64 63 63 66 70 73 77 83 87 87 85 82 81 81 82 83 85 87 87 85 84 85 84 83 81 79 77 74 68 62 57 53 48 46 46 45 43 43 42 39 35 32 32 35 40 44 45 46 47 50 52 52 50
48 46 44 41 40 40 40 39 39 41 45 50 56 60 62 63 65 66 66 65 63 61 60 59 60 60 61 64 70 72 71 69 68 68 69 71 72 74 81 92 98 96 93 91 91 90 90 89 89 89 88 88 90 90 87 83 81 79 75 70 64 58 54 51 49 49 49 45 43 43 43 39 36 35 36 39 43 47 49 52 55 56 55 53 50
48 47 46 44 41 40 40 39 38 38 41 44 48 52 58 62 66 68 70 70 69 68 67 66 65 64 65 67 72 76 77 74 71 72 74 75 74 76 85 96 99 97 96 97 96 94 94 93 92 92 92 91 88 84 79 76 76 76 74 72 68 64 60 57 55 53 50 46 44 45 44 41 39 39 41 44 48 52 54 57 58 58 55 51 49